sat.trackr.live / text

‹ back to catalog

STARLINK-37076

NORAD 68173 · 2026-050G

PAYLOAD ACTIVE UNKNOWN

§ Identity

Operator
Country
US
Launch date
2026-03-14
Launch site
AFETR
Launch vehicle
Mass (kg)
RCS (m²)

Purposes: comms

External: N2YO · Heavens-Above · Gunter

§ Orbital elements

Epoch: 2026-09-19T21:54:14.692320Z

Period
93.85 min
Inclination
53.1582°
Eccentricity
0.0000904
Mean motion
15.34408322 rev/d
Perigee alt
462.1 km
Apogee alt
463.3 km
Semi-major
6,840.8 km
B*
4.6537e-4
RAAN
80.7653°
Arg perigee
100.2685°
Mean anomaly
259.8420°
Rev number
3,047

§ Raw data

STARLINK-370761 68173U 26050G   26262.91267005  .00015384  00000+0  46537-3 0  99942 68173  53.1582  80.7653 0000904 100.2685 259.8420 15.34408322 30471

JSON: /api/v1/satellites/68173 · /tle

For live sub-satellite position, see the globe view (requires WebGL).

§ Visibility from observer

Set your observer location to see the next 7 days of passes ≥ 10°. The values pass through the URL so the page stays shareable.

No JS? Fill the form by hand. The geolocation button needs JavaScript.